Other Surface Observations
Issued by NWS Tucson, AZ

Home | Current Version | Previous Version | Text Only | Print | Product List | Glossary On
Versions: 1 2 3 4 5 6 7 8 9 10 11 12 13 14 15 16 17 18 19 20 21 22 23 24 25 26 27 28 29 30 31 32 33 34 35 36 37 38 39 40 41 42 43 44 45 46 47 48 49 50
000
SXUS55 KTWC 300015
OSOTWC

WEATHER ROUNDUP FOR SOUTHEAST ARIZONA
NATIONAL WEATHER SERVICE TUCSON AZ
515 PM MST THU JAN 29 2015

AZZ504>506-514-300115-
LOCATION       SKY/WX    TMP DP  RH WIND       PRES   REMARKS
TUCSON         CLOUDY    67  47  48 W8        30.04R
DAVIS-MONTHAN  CLOUDY    67  47  47 W8        30.02S
CHILDRENS PARK N/A       67  49  53 N2                PIMA CO DEQ
ALVERNON/22ND  N/A      N/A N/A N/A N/A               PIMA CO DEQ
CHERRY/GLENN   N/A      N/A N/A N/A N/A               PIMA CO DEQ
TANGERINE      N/A       66 N/A N/A N3                PIMA CO DEQ
CONTL RANCH    N/A       67  51  57 N3                PIMA CO DEQ
GRANT/1ST      N/A       68  49  50 N3                PIMA CO DEQ
CRAYCROFT/22ND N/A      N/A N/A N/A N/A               PIMA CO DEQ
GOLFLINKS/KOLB N/A       68  46  45 NE4               PIMA CO DEQ
AJO/12TH       N/A       69  49  49 N2                PIMA CO DEQ
SAGUARO EAST   N/A      N/A N/A N/A N/A               PIMA CO DEQ
FAIRGROUNDS    N/A       70 N/A N/A E7                PIMA CO DEQ
SAGUARO        N/A       70  43  37 NE3               *SABINO CYN
SAN CARLOS     N/A       63  46  53 SE11G23           *SAN CARLOS
GREEN VALLEY   N/A       67  47  48 N7                PIMA CO DEQ
HORSE CAMP CYN N/A       59  40  49 E14G20            *ARAVAIPA CYN
RINCON MTNS    N/A       42  35  77 E8G18             *NR MANNING CAMP
$$

AZZ509>511-300115-
LOCATION       SKY/WX    TMP DP  RH WIND       PRES   REMARKS
SAFFORD        CLOUDY    62  41  46 E10       30.11S
STRAY HORSE    N/A       42  37  81 SE2               *
TRAIL CABIN    N/A       47  39  74 E5G15             *N OF GRANVILLE
BLACK HILLS    N/A       63  43  48 SE8G14            *N OF FT THOMAS
DRY LAKE       N/A       42  39  90 SE8G17            *NATANES MTNS
NOON CREEK     N/A       52  47  84 SW4               *PINALENO MTNS
COLUMBINE      N/A       36  30  80 S6G14             *PINALENO MTNS
GUTHRIE        N/A       50  36  59 E6G20             *SW OF GUTHRIE
$$

AZZ502-503-513-300115-
LOCATION       SKY/WX    TMP DP  RH WIND       PRES   REMARKS
NOGALES        CLOUDY    69  38  32 E6        30.04F
SELLS          N/A       61  56  83 NW5G12            *
SASABE         N/A       64  50  60 NW6G10            *ALTAR VLY
HOPKINS        N/A       52  34  51 E18G23            *SANTA RITA MTNS
CARR CYN       N/A       58  39  49 E4G11             *W OF HEREFORD
$$

AZZ507-508-512-300115-
LOCATION       SKY/WX    TMP DP  RH WIND       PRES   REMARKS
SIERRA VISTA   CLOUDY    61  39  44 E9        30.10F
DOUGLAS        CLOUDY    63  43  48 E9        30.11F
EMPIRE MTNS    N/A       62  37  40 E10G17            *LAS CIENEGAS NCA
MULESHOE RANCH N/A       59  42  53 E8G16             *PRESERVE
HEADQUARTERS   N/A       56  40  54 E5G11             *CHIRICAHUA MTNS
$$

.............................NOTES.............................
THIS IS AN AUTOMATED COLLECTIVE WITH MINIMAL QUALITY CONTROL.
PIMA CO DEQ SITES HAVE NONSTANDARD WIND SENSOR HEIGHTS.
PIMA CO DEQ SITES DO NOT REPORT WIND GUSTS.
* INDICATES WIND SENSORS LOCATED AT 20 FEET INSTEAD OF 33 FEET.
..............................KEY..............................
SKY/WX - SKY CONDITION/WEATHER
TMP    - TEMPERATURE IN FAHRENHEIT
DP     - DEWPOINT IN FAHRENHEIT
RH     - RELATIVE HUMIDITY IN PERCENT
WIND   - DIRECTION AND SPEED IN MILES PER HOUR (MPH)
VRB    - VARIABLE WIND DIRECTION
PRES   - MEAN SEA LEVEL PRESSURE IN INCHES OF MERCURY
         F - FALLING PRESSURE   R - RISING PRESSURE
         S - STEADY PRESSURE
VSB    - VISIBILITY IN MILES
HX     - HEAT INDEX IN FAHRENHEIT
WCI    - WIND CHILL INDEX IN FAHRENHEIT
N/A    - NOT AVAILABLE
AFB    - AIR FORCE BASE
         DAVIS-MONTHAN IS DAVIS-MONTHAN AIR FORCE BASE
CYN    - CANYON
MTNS   - MOUNTAINS
NCA    - NATIONAL CONSERVATION AREA
NR     - NEAR
VLY    - VALLEY
CONTL  - CONTINENTAL
PIMA CO DEQ - PIMA COUNTY DEPT OF ENVIRONMENTAL QUALITY



USA.gov is the U.S. government's official web portal to all federal, state and local government web resources and services.